Location: Glenbow
(51.1592°N, 114.3828°W)
Time: 20:28:51
(UTC+00:00)

Envisat - Pass Details

Date: 02 December 2021
Orbit: 764 x 766 km, 98.2° (Epoch: 26 January)

Event Time Altitude Azimuth Distance (km) Brightness Sun altitude
Rises 13:24:52 0° 11° (N) 3,248 6.2 -17.3°
Reaches altitude 10° 13:27:13 10° 6° (N) 2,317 5.4 -17.0°
Maximum altitude 13:32:09 51° 292° (WNW) 957 3.1 -16.2°
Drops below altitude 10° 13:37:03 10° 217° (SW) 2,300 5.3 -15.5°
Sets 13:39:24 0° 212° (SSW) 3,222 6.1 -15.1°
